FENGYUN 1C DEB

Satellite information

Favourite Embed

Satellite Type and Status

DEBRISIN ORBIT

Key statistics

Satellite FENGYUN 1C DEB at a glance.

Uptime

9496

Days in orbit

Revolutions

≈ 14.1

Per day

Orbit

SSO

Sun Synchronous Orbit

Inclination

98.7

Latest

Satellite identification and parameters

Extended collection of information and parameters for FENGYUN 1C DEB.

Object identification

Identified? True

Debris? True

Object name: FENGYUN 1C DEB

International designator: 1999-025BER

Object number (NORAD): 31047

Object ID (CCSDS): 31047

Country: PEOPLES REPUBLIC OF CHINA (PRC)

Current information (Y/N): Y

RCS size: SMALL

Orbital parameters

Period: 101.879 minutes

Inclination: 98.693 deg

SMA: 7225.765 km

Apoapsis: 867.296 km

Periapsis: 827.964 km

RAAN: 128.4718 deg

Eccentricy: 0.0027216

Argument of periapsis: 92.3307 deg

Mean anomaly: 300.7699 deg

Mean motion: 14.13438798 rev/day

Mean motion (dot): 0.00001081 rev/day2

B* drag term: 0.00059552 1/REarth

Two-line elements (TLE)

Creation date: May 5, 2025, 6:46 a.m.

Reference frame: TEME

Reference center: EARTH

Epoch: May 4, 2025, 11:12 p.m. UTC

TLE line 0: 0 FENGYUN 1C DEB

TLE line 1: 1 31047U 99025BER 25124.96667840 .00001081 00000-0 59552-3 0 9999

TLE line 2: 2 31047 98.6930 128.4718 0027216 92.3307 300.7699 14.13438798932584

Live tracking on map

Real-time ground track for satellite FENGYUN 1C DEB.

In-orbit conjunctions

A list of the most updated potential collisions computed for object FENGYUN 1C DEB.

Target Orbit TCA Probability of collision Miss distance Type
NOAA 7 SSO 2024-12-24 00:08:30 0.0006718738 744.0 (m) PAYLOAD

Associated space launch

Chinese polar orbiting meteorological satellite

FENGYUN 1C DEB was lifted into orbit during the mission ‘Long March 4B | Feng Yun 1C’, on board a Long March 4B space rocket.

The launch took place on May 10, 1999, 1:33 a.m. from Launch Complex 7.

For more information about the launch, click the button.

Launch to space Long March 4B | Feng Yun 1C
Long March 4B | Feng Yun 1C

Agency: N/A

Status: Launch Successful

Launch date: May 10, 1999, 1:33 a.m. UTC

Rocket: Long March 4B

Launch pad: Launch Complex 7

Location: Taiyuan Satellite Launch Center, People's Republic of China

...

Latest news about this satellite

There are no fresh news available about this satellite. Check back as we update our databases every day.


Newsletter sign-up

Weekly statistics, charts and insights to help you stay on top of the space industry.